"2010-06-10 00:00:00",187660,4.936,17.31,2.183,0.468,20.26,108.8672,21.99,22.88,57.93,0,110.8,13.28,22.81,339.3
"2010-06-10 00:00:30",187661,4.648,5.872,5.608,0.537,20.32,108.876,22.01,22.89,57.9,0,110.8,13.28,22.84,327.9
"2010-06-10 00:01:00",187662,4.426,4.424,4.681,0.632,20.38,108.8761,22.01,22.89,57.96,0,110.8,13.28,22.84,326.4
"2010-06-10 00:01:30",187663,4.589,3.557,3.813,0.588,20.39,108.8764,22.01,22.89,57.88,0,110.8,13.28,22.84,325.6
"2010-06-10 00:02:00",187664,5.144,358.3,5.133,0.457,20.47,108.8761,22.01,22.91,57.98,0,110.8,13.28,22.84,320.3
"2010-06-10 00:02:30",187665,5.118,356.2,4.952,0.902,20.44,108.8774,22.01,22.91,58.15,0,110.8,13.28,22.84,318.2
"2010-06-10 00:03:00",187666,4.537,1.289,6.583,0.763,20.41,108.8777,22.01,22.9,58.18,0,110.8,13.28,22.84,323.3
"2010-06-10 00:03:30",187667,2.885,4.805,7.061,0.729,20.6,108.8798,22.02,22.9,58.43,0,110.8,13.28,22.85,326.8
"2010-06-10 00:04:00",187668,4.446,10.26,7.262,1.421,20.26,108.8832,22.03,22.9,58.23,0,110.8,13.28,22.86,332.3
"2010-06-10 00:04:30",187669,4.404,13.64,5.695,0.933,20.3,108.8829,22.03,22.91,58.28,0,110.8,13.28,22.85,335.6
"2010-06-10 00:05:00",187670,3.262,5.238,6.906,0.877,20.42,108.8905,22.05,22.91,58.4,0,110.8,13.28,22.87,327.2
"2010-06-10 00:05:30",187671,4.924,359.9,3.795,0.566,20.23,108.893,22.05,22.92,58.22,0,110.8,13.28,22.88,321.9
"2010-06-10 00:06:00",187672,5.06,8.05,3.813,0.735,20.13,108.8899,22.04,22.9,57.91,0,110.8,13.28,22.87,330.0
"2010-06-10 00:06:30",187673,5.712,356.2,2.125,0.659,20.22,108.8917,22.05,22.92,57.91,0,110.8,13.28,22.88,318.2
"2010-06-10 00:07:00",187674,5.566,355.4,2.958,0.979,20.46,108.8863,22.03,22.89,58.24,0,110.8,13.28,22.86,317.4
"2010-06-10 00:07:30",187675,4.29,359,3.724,0.632,20.24,108.8766,22.01,22.89,57.96,0,110.8,13.28,22.84,321.0
"2010-06-10 00:08:00",187676,4.261,359.5,2.578,0.476,20.28,108.8681,21.99,22.89,58.02,0,110.8,13.28,22.82,321.5
"2010-06-10 00:08:30",187677,4.912,357.5,4.936,0.861,20.25,108.8687,21.99,22.89,58.2,0,110.8,13.27,22.82,319.5
"2010-06-10 00:09:00",187678,4.571,358.4,3.348,0.683,20.22,108.8693,21.99,22.88,57.96,0,110.8,13.26,22.82,320.4
"2010-06-10 00:09:30",187679,5.148,356.3,1.522,0.366,20.22,108.8693,21.99,22.88,58.1,0,110.8,13.26,22.82,318.3
"2010-06-10 00:10:00",187680,4.771,357.9,2.371,0.586,20.29,108.869,21.99,22.85,58.4,0,110.8,13.27,22.82,319.9
"2010-06-10 00:10:30",187681,4.305,0.281,2.542,0.462,20.26,108.8644,21.98,22.85,58.15,0,110.8,13.26,22.81,322.3
"2010-06-10 00:11:00",187682,5.166,4.114,6.88,0.733,20.31,108.8607,21.97,22.84,57.99,0,110.8,13.27,22.80,326.1
"2010-06-10 00:11:30",187683,4.169,5.713,5.528,0.461,20.32,108.8709,21.99,22.84,58.26,0,110.8,13.27,22.82,327.7
"2010-06-10 00:12:00",187684,4.765,2.904,3.199,0.526,20.25,108.8696,21.99,22.85,58.12,0,110.8,13.27,22.82,324.9
"2010-06-10 00:12:30",187685,4.806,4.623,4.081,0.585,20.26,108.8699,21.99,22.85,58.07,0,110.8,13.28,22.82,326.6
"2010-06-10 00:13:00",187686,3.547,3.709,5.51,0.428,20.25,108.869,21.99,22.84,58.2,0,110.8,13.27,22.82,325.7
"2010-06-10 00:13:30",187687,3.316,5.012,6.123,1.009,20.28,108.869,21.99,22.85,58.44,0,110.8,13.27,22.82,327.0
"2010-06-10 00:14:00",187688,2.704,5.898,8.04,0.946,20.35,108.8712,22,22.84,58.65,0,110.8,13.27,22.82,327.9
"2010-06-10 00:14:30",187689,4.203,359.2,3.585,0.563,20.14,108.8721,22,22.84,58.06,0,110.8,13.26,22.83,321.2
"2010-06-10 00:15:00",187690,3.988,2.968,3.688,0.321,20.19,108.8715,22,22.84,57.79,0,110.8,13.27,22.82,325.0
"2010-06-10 00:15:30",187691,4.156,358.8,1.815,0.262,20.21,108.8699,21.99,22.85,58.02,0,110.8,13.28,22.82,320.8
"2010-06-10 00:16:00",187692,3.796,1.013,2.393,0.349,20.22,108.8699,21.99,22.83,57.78,0,110.8,13.28,22.82,323.0
"2010-06-10 00:16:30",187693,3.649,3.919,1.721,0.245,20.26,108.8696,21.99,22.84,57.35,0,110.8,13.28,22.82,325.9
"2010-06-10 00:17:00",187694,3.715,4.496,2.906,0.166,20.26,108.8687,21.99,22.84,57.24,0,110.8,13.28,22.82,326.5
"2010-06-10 00:17:30",187695,3.659,5.403,2.109,0.22,20.22,108.8672,21.99,22.85,57.14,0,110.8,13.28,22.81,327.4
"2010-06-10 00:18:00",187696,3.64,5.649,3.428,0.249,20.2,108.8689,21.99,22.87,57.22,0,110.8,13.28,22.82,327.6
"2010-06-10 00:18:30",187697,3.62,9.27,3.678,0.449,20.25,108.8723,22,22.86,57.51,0,110.8,13.27,22.83,331.3
"2010-06-10 00:19:00",187698,2.934,8.51,6.909,0.748,20.27,108.8751,22.01,22.88,58.25,0,110.8,13.27,22.83,330.5
"2010-06-10 00:19:30",187699,4.14,11.27,3.573,0.654,20.23,108.8754,22.01,22.88,57.65,0,110.8,13.27,22.83,333.3
"2010-06-10 00:20:00",187700,3.962,4.463,2.277,0.218,20.18,108.877,22.01,22.87,57.56,0,110.8,13.27,22.84,326.5
"2010-06-10 00:20:30",187701,3.792,1.885,2.323,0.204,20.21,108.8643,21.98,22.87,57.54,0,110.8,13.27,22.81,323.9
"2010-06-10 00:21:00",187702,3.888,359.6,1.245,0.185,20.23,108.8595,21.97,22.87,57.51,0,110.8,13.28,22.79,321.6
"2010-06-10 00:21:30",187703,4.021,3.507,3.171,0.269,20.22,108.8565,21.96,22.86,57.67,0,110.8,13.28,22.79,325.5
"2010-06-10 00:22:00",187704,4.422,358.9,2.558,0.393,20.21,108.8562,21.96,22.87,57.73,0,110.8,13.28,22.79,320.9
"2010-06-10 00:22:30",187705,5.548,354.5,1.604,0.623,20.37,108.8611,21.97,22.85,57.62,0,110.8,13.28,22.80,316.5
"2010-06-10 00:23:00",187706,4.119,358.7,3.089,0.577,20.5,108.8641,21.98,22.85,57.63,0,110.8,13.28,22.81,320.7
"2010-06-10 00:23:30",187707,3.877,0.917,2.089,0.226,20.57,108.8672,21.99,22.85,57.69,0,110.8,13.28,22.81,322.9
"2010-06-10 00:24:00",187708,4.157,2.797,2.379,0.265,20.72,108.8677,21.99,22.82,57.73,0,110.8,13.28,22.82,324.8
"2010-06-10 00:24:30",187709,4.028,1.616,2.632,0.165,20.74,108.8575,21.96,22.83,57.72,0,110.8,13.28,22.79,323.6
"2010-06-10 00:25:00",187710,3.919,4.49,2.678,0.235,20.69,108.8499,21.94,22.82,57.75,0,110.8,13.28,22.77,326.5
"2010-06-10 00:25:30",187711,3.509,5.338,4.645,0.706,20.59,108.8419,21.92,22.81,58.08,0,110.8,13.28,22.75,327.3
"2010-06-10 00:26:00",187712,4.931,357.4,6.45,1.116,20.52,108.838,21.91,22.81,58.01,0,110.8,13.28,22.74,319.4
"2010-06-10 00:26:30",187713,4.808,356.9,5.829,1.28,20.52,108.8396,21.91,22.8,58.63,0,110.8,13.27,22.74,318.9
"2010-06-10 00:27:00",187714,4.122,358.5,2.282,0.359,20.57,108.8438,21.93,22.78,57.77,0,110.8,13.28,22.75,320.5
"2010-06-10 00:27:30",187715,4.134,357.5,2.633,0.78,20.6,108.8417,21.92,22.77,57.86,0,110.8,13.27,22.75,319.5
"2010-06-10 00:28:00",187716,3.572,358.8,1.402,0.277,20.58,108.8432,21.92,22.78,57.74,0,110.8,13.27,22.75,320.8
"2010-06-10 00:28:30",187717,3.849,358.3,1.71,0.214,20.54,108.8438,21.93,22.8,57.67,0,110.8,13.27,22.75,320.3
"2010-06-10 00:29:00",187718,3.855,0.087,3.978,0.554,20.52,108.8481,21.94,22.8,57.68,0,110.8,13.27,22.76,322.1
"2010-06-10 00:29:30",187719,3.267,4.948,3.01,0.21,20.46,108.8558,21.96,22.81,57.7,0,110.8,13.26,22.78,326.9
"2010-06-10 00:30:00",187720,4.144,2.881,5.226,0.622,20.45,108.8566,21.96,22.83,57.77,0,110.8,13.26,22.79,324.9
"2010-06-10 00:30:30",187721,4.255,1.268,4.683,0.687,20.47,108.8513,21.94,22.81,58.51,0,110.8,13.27,22.77,323.3
"2010-06-10 00:31:00",187722,4.22,4.699,5.515,0.718,20.41,108.8456,21.93,22.8,58.6,0,110.8,13.27,22.76,326.7
"2010-06-10 00:31:30",187723,4.912,356.7,3.852,0.915,20.46,108.8454,21.93,22.79,58.76,0,110.8,13.27,22.76,318.7
"2010-06-10 00:32:00",187724,3.898,3.831,5.991,0.521,20.5,108.8454,21.93,22.79,58.81,0,110.8,13.27,22.76,325.8
"2010-06-10 00:32:30",187725,3.962,3.776,4.4,0.264,20.51,108.8454,21.93,22.78,58.26,0,110.8,13.28,22.76,325.8
"2010-06-10 00:33:00",187726,4.362,358.1,2.561,0.494,20.51,108.8454,21.93,22.77,58.28,0,110.8,13.28,22.76,320.1
"2010-06-10 00:33:30",187727,4.124,1.162,2.382,0.219,20.51,108.8454,21.93,22.79,58.45,0,110.8,13.28,22.76,323.2
"2010-06-10 00:34:00",187728,4.107,7.05,2.032,0.231,20.44,108.8451,21.93,22.77,58.24,0,110.8,13.28,22.76,329.0
"2010-06-10 00:34:30",187729,4.837,0.41,7.487,1.173,20.53,108.8451,21.93,22.78,58.22,0,110.8,13.28,22.76,322.4
"2010-06-10 00:35:00",187730,4.69,359.5,4.812,0.676,20.55,108.8451,21.93,22.77,58.51,0,110.8,13.28,22.76,321.5
"2010-06-10 00:35:30",187731,4.105,1.637,3.508,0.244,20.51,108.8454,21.93,22.77,58.33,0,110.8,13.28,22.76,323.6
"2010-06-10 00:36:00",187732,4.238,1.554,4.612,0.916,20.47,108.8454,21.93,22.78,58.25,0,110.8,13.28,22.76,323.6
"2010-06-10 00:36:30",187733,4.239,0.992,2.378,0.562,20.51,108.8454,21.93,22.77,58.45,0,110.8,13.28,22.76,323.0
"2010-06-10 00:37:00",187734,3.842,2.779,5.722,0.739,20.44,108.8454,21.93,22.77,58.7,0,110.8,13.28,22.76,324.8
"2010-06-10 00:37:30",187735,3.579,4.833,7.753,0.738,20.32,108.8454,21.93,22.77,59.12,0,110.8,13.28,22.76,326.8
"2010-06-10 00:38:00",187736,4.275,11.54,7.324,0.744,20.32,108.8454,21.93,22.77,58.46,0,110.8,13.28,22.76,333.5
"2010-06-10 00:38:30",187737,3.562,6.797,5.58,0.586,20.29,108.8454,21.93,22.79,58.5,0,110.8,13.28,22.76,328.8
"2010-06-10 00:39:00",187738,3.617,7.491,5.555,0.78,20.23,108.8454,21.93,22.79,58.65,0,110.8,13.28,22.76,329.5
"2010-06-10 00:39:30",187739,4.424,16.1,2.765,0.705,20.2,108.8454,21.93,22.78,59.08,0,110.8,13.28,22.76,338.1
"2010-06-10 00:40:00",187740,3.925,11.16,4.01,0.782,20.22,108.8454,21.93,22.78,58.7,0,110.8,13.28,22.76,333.2
"2010-06-10 00:40:30",187741,4.034,358.8,10.12,1.641,20.22,108.8454,21.93,22.78,58.97,0,110.8,13.28,22.76,320.8
"2010-06-10 00:41:00",187742,4.856,358.6,6.758,0.799,20.25,108.8305,21.89,22.77,59.03,0,110.8,13.28,22.72,320.6
"2010-06-10 00:41:30",187743,4.322,360,4.263,0.521,20.25,108.8181,21.86,22.74,58.82,0,110.8,13.28,22.69,322.0
"2010-06-10 00:42:00",187744,4.227,3.69,6.61,0.657,20.3,108.8116,21.84,22.76,59.18,0,110.8,13.28,22.67,325.7
"2010-06-10 00:42:30",187745,3.533,4.308,5.429,0.475,20.26,108.8127,21.85,22.74,58.83,0,110.8,13.28,22.67,326.3
"2010-06-10 00:43:00",187746,3.347,5.495,4.883,0.54,20.25,108.8133,21.85,22.76,58.65,0,110.8,13.27,22.67,327.5
"2010-06-10 00:43:30",187747,3.585,3.289,2.441,0.263,20.25,108.8121,21.84,22.73,58.58,0,110.8,13.27,22.67,325.3
"2010-06-10 00:44:00",187748,4.098,0.884,3.359,0.338,20.24,108.8116,21.84,22.73,58.68,0,110.8,13.27,22.67,322.9
"2010-06-10 00:44:30",187749,4.025,3.292,3.408,0.302,20.28,108.8116,21.84,22.74,58.74,0,110.8,13.27,22.67,325.3
"2010-06-10 00:45:00",187750,4.059,4.441,5.81,0.774,20.27,108.8116,21.84,22.73,59.16,0,110.8,13.27,22.67,326.4
"2010-06-10 00:45:30",187751,3.858,0.324,7.515,1.039,20.35,108.8116,21.84,22.73,59.4,0,110.8,13.27,22.67,322.3
"2010-06-10 00:46:00",187752,3.742,1.961,4.042,0.741,20.29,108.8116,21.84,22.73,59.18,0,110.8,13.27,22.67,324.0
"2010-06-10 00:46:30",187753,3.891,0.793,2.691,0.284,20.26,108.8116,21.84,22.72,58.77,0,110.8,13.27,22.67,322.8
"2010-06-10 00:47:00",187754,4.333,1.957,3.31,0.32,20.29,108.8116,21.84,22.71,58.82,0,110.8,13.27,22.67,324.0
"2010-06-10 00:47:30",187755,4.743,357.4,2.368,0.562,20.31,108.8116,21.84,22.73,58.95,0,110.8,13.27,22.67,319.4
"2010-06-10 00:48:00",187756,4.659,11.06,8.11,0.67,20.34,108.8116,21.84,22.71,59.32,0,110.8,13.28,22.67,333.1
"2010-06-10 00:48:30",187757,3.985,3.79,5.536,0.469,20.37,108.8116,21.84,22.72,58.84,0,110.8,13.28,22.67,325.8
"2010-06-10 00:49:00",187758,4.15,5.574,5.094,0.609,20.36,108.8116,21.84,22.71,58.83,0,110.8,13.28,22.67,327.6
"2010-06-10 00:49:30",187759,3.675,2.547,4.231,0.538,20.46,108.8116,21.84,22.72,59.29,0,110.8,13.28,22.67,324.5
"2010-06-10 00:50:00",187760,3.464,0.598,6.513,0.965,20.43,108.8116,21.84,22.72,59.08,0,110.8,13.28,22.67,322.6
"2010-06-10 00:50:30",187761,3.945,10.69,5.653,0.883,20.38,108.8116,21.84,22.73,59.27,0,110.8,13.28,22.67,332.7
"2010-06-10 00:51:00",187762,3.073,6.666,4.789,0.62,20.42,108.8116,21.84,22.73,59.21,0,110.8,13.28,22.67,328.7
"2010-06-10 00:51:30",187763,4.792,1.298,4.189,0.565,20.33,108.8116,21.84,22.72,59.06,0,110.8,13.28,22.67,323.3
"2010-06-10 00:52:00",187764,5.856,354.7,3.378,1.008,20.35,108.8116,21.84,22.72,59.01,0,110.8,13.28,22.67,316.7
"2010-06-10 00:52:30",187765,5.037,357.6,2.688,0.669,20.46,108.8116,21.84,22.7,59.13,0,110.8,13.28,22.67,319.6
"2010-06-10 00:53:00",187766,4.695,357.9,1.748,0.415,20.44,108.8068,21.83,22.69,58.87,0,110.8,13.28,22.66,319.9
"2010-06-10 00:53:30",187767,4.438,358.7,2.033,0.356,20.51,108.7928,21.79,22.69,58.85,0,110.8,13.28,22.62,320.7
"2010-06-10 00:54:00",187768,4.587,358,2.32,0.619,20.52,108.7978,21.81,22.69,58.83,0,110.8,13.28,22.64,320.0
"2010-06-10 00:54:30",187769,4.043,0.589,4.713,0.548,20.53,108.7998,21.81,22.7,58.81,0,110.8,13.28,22.64,322.6
"2010-06-10 00:55:00",187770,4.28,357.2,3.859,0.564,20.52,108.7911,21.79,22.67,59.31,0,110.8,13.28,22.62,319.2
"2010-06-10 00:55:30",187771,3.921,0.866,2.417,0.392,20.48,108.7778,21.76,22.68,58.84,0,110.8,13.28,22.58,322.9
"2010-06-10 00:56:00",187772,4.39,0.509,1.505,0.262,20.47,108.7778,21.76,22.68,58.81,0,110.8,13.28,22.58,322.5
"2010-06-10 00:56:30",187773,6.241,354.1,3.632,1.147,20.51,108.7812,21.76,22.68,58.71,0,110.8,13.28,22.59,316.1
"2010-06-10 00:57:00",187774,5.639,355,4.046,1.192,20.51,108.779,21.76,22.68,58.71,0,110.8,13.28,22.59,317.0
"2010-06-10 00:57:30",187775,4.261,1.053,4.122,0.631,20.5,108.7829,21.77,22.67,59.2,0,110.8,13.28,22.60,323.1
"2010-06-10 00:58:00",187776,4.069,1.371,5.758,0.869,20.55,108.7801,21.76,22.68,59.29,0,110.8,13.28,22.59,323.4
"2010-06-10 00:58:30",187777,5.015,356.4,5.177,0.996,20.51,108.7866,21.78,22.69,59.11,0,110.8,13.28,22.61,318.4
"2010-06-10 00:59:00",187778,4.858,357.1,2.607,0.426,20.47,108.7781,21.76,22.67,58.93,0,110.8,13.28,22.58,319.1
"2010-06-10 00:59:30",187779,4.267,360,2.148,0.376,20.5,108.7778,21.76,22.67,58.67,0,110.8,13.28,22.58,322.0
"2010-06-10 01:00:00",187780,4.565,359.4,2.686,0.343,20.56,108.7778,21.76,22.69,58.89,0,110.8,13.28,22.58,321.4
"2010-06-10 01:00:30",187781,4.285,1.577,2.392,0.305,20.59,108.781,21.76,22.68,58.89,0,110.8,13.28,22.59,323.6
"2010-06-10 01:01:00",187782,4.941,357.7,3.066,0.627,20.5,108.7925,21.79,22.67,58.98,0,110.8,13.27,22.62,319.7
"2010-06-10 01:01:30",187783,4.905,358.8,2.726,0.658,20.49,108.7829,21.77,22.68,58.77,0,110.8,13.28,22.60,320.8
"2010-06-10 01:02:00",187784,5.251,356.9,3.024,0.944,20.49,108.7778,21.76,22.69,59,0,110.8,13.28,22.58,318.9
"2010-06-10 01:02:30",187785,5.453,356.3,4.029,0.756,20.51,108.7778,21.76,22.66,58.85,0,110.8,13.27,22.58,318.3
"2010-06-10 01:03:00",187786,4.877,359.5,4.135,0.8,20.53,108.7773,21.75,22.66,58.9,0,110.8,13.27,22.58,321.5
"2010-06-10 01:03:30",187787,5.652,356.3,2.368,0.932,20.56,108.7773,21.75,22.65,58.71,0,110.8,13.27,22.58,318.3
"2010-06-10 01:04:00",187788,5.648,355.3,3.37,0.991,20.54,108.7737,21.75,22.64,59.05,0,110.8,13.27,22.57,317.3
"2010-06-10 01:04:30",187789,4.92,0.004,5.884,1.24,20.54,108.7559,21.7,22.63,59.11,0,110.8,13.27,22.53,322.0
"2010-06-10 01:05:00",187790,4.55,0.48,3.679,0.759,20.58,108.7466,21.68,22.64,58.9,0,110.8,13.28,22.50,322.5
"2010-06-10 01:05:30",187791,5.626,355.5,2.435,0.845,20.61,108.7452,21.67,22.62,59.05,0,110.8,13.28,22.50,317.5
"2010-06-10 01:06:00",187792,4.616,359.1,1.749,0.598,20.58,108.7447,21.67,22.62,58.93,0,110.8,13.28,22.50,321.1
"2010-06-10 01:06:30",187793,5.929,355.7,1.637,0.501,20.54,108.745,21.67,22.62,58.74,0,110.8,13.28,22.50,317.7
"2010-06-10 01:07:00",187794,5.705,357.2,3.265,0.91,20.57,108.7472,21.68,22.61,58.83,0,110.8,13.28,22.50,319.2
"2010-06-10 01:07:30",187795,5.736,357.2,3.826,1.252,20.62,108.7483,21.68,22.62,59.03,0,110.8,13.28,22.51,319.2
"2010-06-10 01:08:00",187796,4.54,2.048,1.6,0.191,20.67,108.7514,21.69,22.6,58.72,0,110.8,13.29,22.52,324.0
"2010-06-10 01:08:30",187797,4.827,0.186,1.609,0.318,20.64,108.7644,21.72,22.63,58.63,0,110.8,13.29,22.55,322.2
"2010-06-10 01:09:00",187798,4.864,360,1.958,0.257,20.68,108.7782,21.76,22.62,58.55,0,110.8,13.29,22.58,322.0
"2010-06-10 01:09:30",187799,4.618,4.368,3.624,0.281,20.74,108.7849,21.77,22.65,58.66,0,110.8,13.29,22.60,326.4
"2010-06-10 01:10:00",187800,4.667,3.181,2.418,0.282,20.71,108.7827,21.77,22.65,58.6,0,110.8,13.29,22.60,325.2
"2010-06-10 01:10:30",187801,4.445,5.336,2.288,0.158,20.72,108.7854,21.78,22.66,58.56,0,110.8,13.28,22.60,327.3
"2010-06-10 01:11:00",187802,4.666,2.54,3.713,0.534,20.66,108.7941,21.8,22.67,58.51,0,110.8,13.28,22.63,324.5
"2010-06-10 01:11:30",187803,4.631,5.054,4.174,0.428,20.68,108.798,21.81,22.7,58.54,0,110.8,13.28,22.64,327.1
"2010-06-10 01:12:00",187804,4.62,359.9,3.303,0.831,20.61,108.8017,21.82,22.69,58.72,0,110.8,13.28,22.65,321.9
"2010-06-10 01:12:30",187805,4.535,2.642,2.16,0.216,20.69,108.792,21.79,22.7,58.42,0,110.8,13.28,22.62,324.6
"2010-06-10 01:13:00",187806,4.72,1.047,2.19,0.284,20.7,108.809,21.84,22.7,58.36,0,110.8,13.28,22.66,323.0
"2010-06-10 01:13:30",187807,4.617,360,3.279,0.5,20.64,108.8095,21.84,22.71,58.56,0,110.8,13.28,22.67,322.0
"2010-06-10 01:14:00",187808,4.438,2.933,2.312,0.303,20.69,108.7956,21.8,22.71,58.47,0,110.8,13.28,22.63,324.9
"2010-06-10 01:14:30",187809,4.521,5.023,4.344,0.362,20.77,108.8081,21.83,22.71,58.41,0,110.8,13.28,22.66,327.0
"2010-06-10 01:15:00",187810,5.473,357.4,2.39,0.605,20.76,108.819,21.86,22.72,58.42,0,110.8,13.28,22.69,319.4
"2010-06-10 01:15:30",187811,5.386,357,1.973,0.678,20.7,108.8178,21.86,22.72,58.5,0,110.8,13.28,22.69,319.0
"2010-06-10 01:16:00",187812,5.168,357.7,3.463,0.82,20.71,108.8095,21.84,22.73,58.55,0,110.8,13.28,22.67,319.7
"2010-06-10 01:16:30",187813,5.452,357.9,3.023,0.936,20.8,108.801,21.82,22.71,58.45,0,110.8,13.28,22.64,319.9
"2010-06-10 01:17:00",187814,5.442,358.5,2.709,0.648,20.8,108.8039,21.82,22.74,58.43,0,110.8,13.28,22.65,320.5
"2010-06-10 01:17:30",187815,6.245,356.1,2.05,0.482,20.79,108.805,21.83,22.72,58.47,0,110.8,13.28,22.65,318.1
"2010-06-10 01:18:00",187816,6.659,354.6,2.162,0.854,20.82,108.7991,21.81,22.73,58.47,0,110.8,13.27,22.64,316.6
"2010-06-10 01:18:30",187817,5.181,359.1,2.601,0.604,20.8,108.7947,21.8,22.73,58.64,0,110.8,13.27,22.63,321.1
"2010-06-10 01:19:00",187818,5.457,358.1,2.269,0.583,20.83,108.7915,21.79,22.72,58.55,0,110.8,13.28,22.62,320.1
"2010-06-10 01:19:30",187819,5.669,358.2,1.636,0.43,20.86,108.7902,21.79,22.73,58.59,0,110.8,13.28,22.62,320.2
"2010-06-10 01:20:00",187820,5.436,358.1,1.881,0.624,20.87,108.7904,21.79,22.72,58.58,0,110.8,13.28,22.62,320.1
"2010-06-10 01:20:30",187821,6.338,355.3,1.975,0.701,20.88,108.7935,21.8,22.71,58.61,0,110.8,13.27,22.62,317.3
"2010-06-10 01:21:00",187822,5.884,357.1,2.658,1.062,20.9,108.7947,21.8,22.71,58.61,0,110.8,13.27,22.63,319.1
"2010-06-10 01:21:30",187823,6.658,355.4,1.64,0.49,20.94,108.7935,21.8,22.72,58.53,0,110.8,13.27,22.62,317.4
"2010-06-10 01:22:00",187824,6.401,356.2,2.012,0.763,20.94,108.7935,21.8,22.7,58.52,0,110.8,13.28,22.62,318.2
"2010-06-10 01:22:30",187825,5.939,357.3,2.105,0.662,20.94,108.7947,21.8,22.72,58.6,0,110.8,13.28,22.63,319.3
"2010-06-10 01:23:00",187826,8.14,352.5,1.524,0.796,20.91,108.7938,21.8,22.72,58.51,0,110.8,13.28,22.62,314.5
"2010-06-10 01:23:30",187827,6.523,356.2,3.064,1.237,20.9,108.7996,21.81,22.73,58.51,0,110.8,13.28,22.64,318.2
"2010-06-10 01:24:00",187828,5.479,358.6,1.967,0.383,20.96,108.7971,21.81,22.72,58.39,0,110.8,13.28,22.63,320.6
"2010-06-10 01:24:30",187829,5.81,357.6,2.575,0.898,20.92,108.7993,21.81,22.7,58.43,0,110.8,13.28,22.64,319.6
"2010-06-10 01:25:00",187830,7.687,352.9,1.703,0.611,20.89,108.7975,21.81,22.7,58.43,0,110.8,13.28,22.63,314.9
"2010-06-10 01:25:30",187831,5.583,358.1,1.93,0.516,20.93,108.8013,21.82,22.7,58.46,0,110.8,13.28,22.64,320.1
"2010-06-10 01:26:00",187832,5.87,357.6,2.645,0.942,20.86,108.8006,21.81,22.7,58.59,0,110.8,13.28,22.64,319.6
"2010-06-10 01:26:30",187833,6.001,356.9,2.906,1.12,20.91,108.8005,21.81,22.69,58.66,0,110.8,13.28,22.64,318.9
"2010-06-10 01:27:00",187834,9.21,349.9,1.825,0.789,20.87,108.7915,21.79,22.68,58.75,0,110.8,13.28,22.62,311.9
"2010-06-10 01:27:30",187835,6.813,355.9,2.483,0.735,20.9,108.7807,21.76,22.67,58.8,0,110.8,13.28,22.59,317.9
"2010-06-10 01:28:00",187836,7.531,353.2,1.83,0.599,20.84,108.776,21.75,22.67,58.76,0,110.8,13.29,22.58,315.2
"2010-06-10 01:28:30",187837,7.715,352.8,2.746,1.324,20.82,108.7765,21.75,22.67,58.77,0,110.8,13.29,22.58,314.8
"2010-06-10 01:29:00",187838,7.418,353.7,2.157,0.954,20.82,108.7768,21.75,22.66,58.8,0,110.8,13.29,22.58,315.7
"2010-06-10 01:29:30",187839,6.353,356.2,2.73,0.907,20.82,108.7775,21.75,22.67,58.82,0,110.8,13.28,22.58,318.2
"2010-06-10 01:30:00",187840,6.913,354.6,2.022,0.931,20.85,108.7793,21.76,22.65,58.81,0,110.8,13.29,22.59,316.6
"2010-06-10 01:30:30",187841,6.124,357.2,2.477,0.948,20.88,108.7731,21.74,22.64,58.92,0,110.8,13.29,22.57,319.2
"2010-06-10 01:31:00",187842,5.239,0.141,3.065,0.81,20.95,108.763,21.72,22.62,59.11,0,110.8,13.29,22.55,322.1
"2010-06-10 01:31:30",187843,5.226,0.425,3.968,0.982,20.94,108.7582,21.71,22.63,59.24,0,110.8,13.29,22.53,322.4
"2010-06-10 01:32:00",187844,5.025,359.7,2.508,0.369,20.9,108.7557,21.7,22.6,59.14,0,110.8,13.29,22.53,321.7
"2010-06-10 01:32:30",187845,5.286,359.3,2.694,0.511,20.91,108.7518,21.69,22.61,59.23,0,110.8,13.29,22.52,321.3
"2010-06-10 01:33:00",187846,4.566,1.886,3.182,0.443,20.93,108.747,21.68,22.61,59.25,0,110.8,13.29,22.50,323.9
"2010-06-10 01:33:30",187847,4.689,3.487,3.59,0.398,21.12,108.7496,21.68,22.6,59.67,0,110.8,13.29,22.51,325.5
"2010-06-10 01:34:00",187848,4.687,3.531,1.847,0.262,21.11,108.7679,21.73,22.6,59.66,0,110.8,13.29,22.56,325.5
"2010-06-10 01:34:30",187849,5.311,0.664,3.282,0.752,21.09,108.7783,21.76,22.61,59.61,0,110.8,13.29,22.58,322.7
"2010-06-10 01:35:00",187850,5.807,357.4,2.303,0.672,21.08,108.7794,21.76,22.61,59.47,0,110.8,13.28,22.59,319.4
"2010-06-10 01:35:30",187851,5.534,358.3,2.763,0.783,21.06,108.7645,21.72,22.61,59.44,0,110.8,13.28,22.55,320.3
"2010-06-10 01:36:00",187852,5.916,358.3,2.795,0.702,21.08,108.7501,21.68,22.6,59.56,0,110.8,13.29,22.51,320.3
"2010-06-10 01:36:30",187853,5.823,359.4,2.748,0.724,21.06,108.747,21.68,22.6,59.68,0,110.8,13.29,22.50,321.4
"2010-06-10 01:37:00",187854,4.935,2.195,1.944,0.282,21.04,108.747,21.68,22.58,59.74,0,110.8,13.29,22.50,324.2
"2010-06-10 01:37:30",187855,4.821,2.757,2.289,0.481,21,108.747,21.68,22.58,59.68,0,110.8,13.29,22.50,324.8
"2010-06-10 01:38:00",187856,5.207,1.469,2.412,0.384,21.11,108.747,21.68,22.56,59.93,0,110.8,13.29,22.50,323.5
"2010-06-10 01:38:30",187857,5.498,0.734,4.155,0.589,21.15,108.747,21.68,22.57,60.04,0,110.8,13.29,22.50,322.7
"2010-06-10 01:39:00",187858,5.485,359.9,3.718,0.608,21.05,108.747,21.68,22.56,59.98,0,110.8,13.29,22.50,321.9
"2010-06-10 01:39:30",187859,5.169,0.97,2.812,0.429,21.09,108.7468,21.68,22.56,60.05,0,110.8,13.29,22.50,323.0
"2010-06-10 01:40:00",187860,5.557,0.33,2.765,0.817,21.05,108.7417,21.66,22.55,59.96,0,110.8,13.29,22.49,322.3
"2010-06-10 01:40:30",187861,5.315,1.75,2.689,0.34,21.13,108.7366,21.65,22.54,60.12,0,110.8,13.29,22.48,323.8
"2010-06-10 01:41:00",187862,5.302,0.654,1.502,0.395,21.1,108.7276,21.63,22.54,60.13,0,110.8,13.3,22.45,322.7
"2010-06-10 01:41:30",187863,5.206,2.137,3.431,0.408,21.09,108.7147,21.59,22.53,60.14,0,110.8,13.3,22.42,324.1
"2010-06-10 01:42:00",187864,5.287,1.075,2.725,0.462,21.08,108.7133,21.59,22.52,60.25,0,110.7,13.3,22.42,323.1
"2010-06-10 01:42:30",187865,5.37,0.08,3.148,0.604,21.15,108.7133,21.59,22.51,60.28,0,110.8,13.3,22.42,322.1
"2010-06-10 01:43:00",187866,5.09,2.249,3.479,0.308,21.15,108.7133,21.59,22.48,60.43,0,110.8,13.3,22.42,324.2
"2010-06-10 01:43:30",187867,5.054,3.044,5.007,0.498,21.17,108.7133,21.59,22.5,60.43,0,110.7,13.3,22.42,325.0
"2010-06-10 01:44:00",187868,5.037,8.88,3.314,0.331,21.37,108.7133,21.59,22.49,60.73,0,110.7,13.3,22.42,330.9
"2010-06-10 01:44:30",187869,5.24,7.57,3.477,0.237,21.3,108.7133,21.59,22.5,60.7,0,110.7,13.3,22.42,329.6
"2010-06-10 01:45:00",187870,5.065,6.768,2.809,0.282,21.24,108.7135,21.59,22.5,60.62,0,110.7,13.3,22.42,328.8
"2010-06-10 01:45:30",187871,4.988,7.851,5.427,0.477,21.25,108.7138,21.59,22.5,60.57,0,110.7,13.3,22.42,329.9
"2010-06-10 01:46:00",187872,4.944,6.233,3.968,0.458,21.24,108.7138,21.59,22.51,60.58,0,110.7,13.3,22.42,328.2
"2010-06-10 01:46:30",187873,5.063,6.514,4.871,0.433,21.24,108.7133,21.59,22.51,60.6,0,110.7,13.3,22.42,328.5
"2010-06-10 01:47:00",187874,4.938,4.736,4.35,0.363,21.25,108.7133,21.59,22.51,60.62,0,110.7,13.3,22.42,326.7
"2010-06-10 01:47:30",187875,4.971,7.843,3.445,0.295,21.34,108.7133,21.59,22.52,60.71,0,110.7,13.3,22.42,329.8